Airfield :
LOGIN :

Register | Disclaimer

   EN    FR    IT 

 










Legend :    VFR   Marginal VFR   IFR   Intensive IFR   Very Intensive IFR
Visi :
Ceiling :
>= 8 km
>= 3000ft
5 to 8 km
1000 to 3000 ft
1500m to 5 km
500 to 1000 ft
800 to 1500m
200 to 500 ft
< 800m
< 200 ft
Symbols :   Thunderstorms  Fog  Heavy snow  Heavy precipitations  Wind > 20 kt
SIGMETs :     Misc.  Thunderstorms  Icing  Turbulence  Mountain Waves  Volcanic Ashes







- Airport Elevation : 1649 ft
- IATA code : HHN


EDFH - Frankfurt-Hahn Rhineland-Palatinate

CURRENT METAR :
  • 211720Z 13007KT CAVOK 13/09 Q1020

EXPIRED METARs :
  • 211650Z 13007KT CAVOK 14/09 Q1020
  • 211620Z 13008KT CAVOK 14/09 Q1020
  • 211550Z 13008KT CAVOK 15/09 Q1020
  • 211520Z 14008KT CAVOK 15/09 Q1020
  • 211450Z 13008KT 110V170 CAVOK 15/09 Q1020

TAF TAF EDFH
Valid from the 21 at 18:00 until the 22 at 18:00 UTC


211700Z 2118/2218 14005KT 9999 FEW035
PROB30
TEMPO 2205/2209 0800 FG BKN003
BECMG 2212/2214 30005KT
No reported NOTAMs for that airfield.



MET'MAP, your aeronautical weather chart ! - Copyright ORBIFLY December 2007 - Disclaimer

ORBIFLY MET'MAP TEAM :

Programming & Development : Alexandra Zaïnal
Concept & Development : Baudouin d'Aumeries
Co-Development & Prog : Marc-Olivier Méhu
Technical & hardware support : Manuel Goepfert

Contact : metmap@orbifly.com




SOURCES & CREDITS :

   NOAA